Time,TemperatureF,DewpointF,PressureIn,WindDirection,WindDirectionDegrees,WindSpeedMPH,WindSpeedGustMPH,Humidity,HourlyPrecipIn,Conditions,Clouds,dailyrainin,SoftwareType,DateUTC
2013-03-05 00:02:00,42.0,35.0,30.16,SSE,160,4.0,6.0,74,-99.99,,,-99.99,,2013-03-05 05:02:00,
2013-03-05 00:12:00,42.0,35.0,30.16,SSE,160,4.0,6.0,74,-99.99,,,-99.99,,2013-03-05 05:12:00,
2013-03-05 00:22:00,42.0,35.0,30.16,SSE,168,4.0,6.0,76,-99.99,,,-99.99,,2013-03-05 05:22:00,
2013-03-05 00:32:00,42.0,35.0,30.16,SSE,168,4.0,6.0,76,-99.99,,,-99.99,,2013-03-05 05:32:00,
2013-03-05 00:42:00,42.0,36.0,30.16,South,176,5.0,6.0,77,-99.99,,,-99.99,,2013-03-05 05:42:00,
2013-03-05 00:52:00,42.0,36.0,30.16,South,176,5.0,6.0,77,-99.99,,,-99.99,,2013-03-05 05:52:00,
2013-03-05 01:01:00,43.0,38.0,30.16,SSW,200,3.0,6.0,81,-99.99,,,-99.99,,2013-03-05 06:01:00,
2013-03-05 01:11:00,43.0,38.0,30.16,SW,220,2.0,4.0,82,-99.99,,,-99.99,,2013-03-05 06:11:00,
2013-03-05 01:22:00,43.0,38.0,30.16,SSW,201,3.0,5.0,84,-99.99,,,-99.99,,2013-03-05 06:22:00,
2013-03-05 01:32:00,43.0,38.0,30.16,SSW,201,3.0,5.0,84,-99.99,,,-99.99,,2013-03-05 06:32:00,
2013-03-05 01:42:00,42.0,37.0,30.15,SSW,209,3.0,6.0,84,-99.99,,,-99.99,,2013-03-05 06:42:00,
2013-03-05 01:52:00,42.0,38.0,30.15,SW,232,4.0,5.0,85,-99.99,,,-99.99,,2013-03-05 06:52:00,
2013-03-05 02:01:00,42.0,38.0,30.15,SW,232,4.0,5.0,85,-99.99,,,-99.99,,2013-03-05 07:01:00,
2013-03-05 02:11:00,42.0,38.0,30.15,WSW,247,4.0,5.0,83,-99.99,,,-99.99,,2013-03-05 07:11:00,
2013-03-05 02:22:00,43.0,38.0,30.15,WSW,251,3.0,6.0,83,-99.99,,,-99.99,,2013-03-05 07:22:00,
2013-03-05 02:32:00,43.0,38.0,30.15,WSW,251,3.0,6.0,83,-99.99,,,-99.99,,2013-03-05 07:32:00,
2013-03-05 02:42:00,43.0,38.0,30.14,WSW,257,1.0,3.0,83,-99.99,,,-99.99,,2013-03-05 07:42:00,
2013-03-05 02:52:00,43.0,38.0,30.14,WSW,257,1.0,3.0,83,-99.99,,,-99.99,,2013-03-05 07:52:00,
2013-03-05 03:02:00,42.0,38.0,30.14,SW,222,1.0,2.0,84,-99.99,,,-99.99,,2013-03-05 08:02:00,
2013-03-05 03:11:00,42.0,38.0,30.14,SW,222,1.0,2.0,84,-99.99,,,-99.99,,2013-03-05 08:11:00,
2013-03-05 03:21:00,40.0,36.0,30.14,SSW,204,1.0,2.0,85,-99.99,,,-99.99,,2013-03-05 08:21:00,
2013-03-05 03:31:00,39.0,36.0,30.14,South,190,2.0,3.0,88,-99.99,,,-99.99,,2013-03-05 08:31:00,
2013-03-05 03:42:00,38.0,35.0,30.15,SSE,151,3.0,4.0,89,-99.99,,,-99.99,,2013-03-05 08:42:00,
2013-03-05 03:52:00,38.0,35.0,30.15,SSE,151,3.0,4.0,89,-99.99,,,-99.99,,2013-03-05 08:52:00,
2013-03-05 04:01:00,36.0,33.0,30.14,SSE,152,4.0,5.0,89,-99.99,,,-99.99,,2013-03-05 09:01:00,
2013-03-05 04:11:00,36.0,33.0,30.14,SSE,152,4.0,5.0,89,-99.99,,,-99.99,,2013-03-05 09:11:00,
2013-03-05 04:21:00,36.0,34.0,30.13,SSE,156,5.0,7.0,91,-99.99,,,-99.99,,2013-03-05 09:21:00,
2013-03-05 04:32:00,36.0,34.0,30.13,SSE,156,5.0,7.0,91,-99.99,,,-99.99,,2013-03-05 09:32:00,
2013-03-05 04:43:00,36.0,34.0,30.13,SSE,156,5.0,7.0,91,-99.99,,,-99.99,,2013-03-05 09:43:00,
2013-03-05 04:52:00,36.0,34.0,30.13,South,191,5.0,7.0,92,-99.99,,,-99.99,,2013-03-05 09:52:00,
2013-03-05 05:01:00,36.0,34.0,30.13,South,191,5.0,7.0,92,-99.99,,,-99.99,,2013-03-05 10:01:00,
2013-03-05 05:11:00,38.0,37.0,30.14,SSW,192,6.0,7.0,94,-99.99,,,-99.99,,2013-03-05 10:11:00,
2013-03-05 05:22:00,39.0,37.0,30.14,South,183,5.0,6.0,93,-99.99,,,-99.99,,2013-03-05 10:22:00,
2013-03-05 05:32:00,39.0,37.0,30.14,South,183,5.0,6.0,93,-99.99,,,-99.99,,2013-03-05 10:32:00,
2013-03-05 05:42:00,37.0,35.0,30.14,South,175,5.0,7.0,92,-99.99,,,-99.99,,2013-03-05 10:42:00,
2013-03-05 05:52:00,37.0,35.0,30.14,South,175,5.0,7.0,92,-99.99,,,-99.99,,2013-03-05 10:52:00,
2013-03-05 06:02:00,37.0,35.0,30.14,South,175,5.0,7.0,92,-99.99,,,-99.99,,2013-03-05 11:02:00,
2013-03-05 06:11:00,37.0,35.0,30.14,South,175,5.0,7.0,92,-99.99,,,-99.99,,2013-03-05 11:11:00,
2013-03-05 06:22:00,37.0,35.0,30.14,South,175,5.0,7.0,92,-99.99,,,-99.99,,2013-03-05 11:22:00,
2013-03-05 06:32:00,37.0,35.0,30.14,South,175,5.0,7.0,92,-99.99,,,-99.99,,2013-03-05 11:32:00,
2013-03-05 06:42:00,42.0,40.0,30.16,SSW,204,2.0,5.0,93,-99.99,,,-99.99,,2013-03-05 11:42:00,
2013-03-05 06:52:00,42.0,40.0,30.16,SSW,204,2.0,5.0,93,-99.99,,,-99.99,,2013-03-05 11:52:00,
2013-03-05 07:02:00,41.0,39.0,30.16,South,174,2.0,3.0,92,-99.99,,,-99.99,,2013-03-05 12:02:00,
2013-03-05 07:12:00,41.0,39.0,30.16,South,174,2.0,3.0,92,-99.99,,,-99.99,,2013-03-05 12:12:00,
2013-03-05 07:22:00,41.0,39.0,30.16,South,175,1.0,2.0,93,-99.99,,,-99.99,,2013-03-05 12:22:00,
2013-03-05 07:32:00,41.0,39.0,30.16,South,175,1.0,2.0,93,-99.99,,,-99.99,,2013-03-05 12:32:00,
2013-03-05 07:42:00,42.0,40.0,30.16,SSW,212,1.0,2.0,93,-99.99,,,-99.99,,2013-03-05 12:42:00,
2013-03-05 07:53:00,42.0,40.0,30.16,SSW,212,1.0,2.0,93,-99.99,,,-99.99,,2013-03-05 12:53:00,
2013-03-05 08:02:00,43.0,41.0,30.17,SSW,211,1.0,1.0,93,-99.99,,,-99.99,,2013-03-05 13:02:00,
2013-03-05 08:12:00,45.0,43.0,30.18,SW,234,1.0,2.0,93,-99.99,,,-99.99,,2013-03-05 13:12:00,
2013-03-05 08:22:00,45.0,43.0,30.18,SW,234,1.0,2.0,93,-99.99,,,-99.99,,2013-03-05 13:22:00,
2013-03-05 08:32:00,48.0,45.0,30.18,South,170,1.0,3.0,90,-99.99,,,-99.99,,2013-03-05 13:32:00,
2013-03-05 08:42:00,50.0,46.0,30.18,South,171,3.0,6.0,84,-99.99,,,-99.99,,2013-03-05 13:42:00,
2013-03-05 08:52:00,50.0,46.0,30.18,South,171,3.0,6.0,84,-99.99,,,-99.99,,2013-03-05 13:52:00,
2013-03-05 09:02:00,52.0,46.0,30.18,South,189,5.0,7.0,80,-99.99,,,-99.99,,2013-03-05 14:02:00,
2013-03-05 09:11:00,52.0,46.0,30.18,South,189,5.0,7.0,80,-99.99,,,-99.99,,2013-03-05 14:11:00,
2013-03-05 09:22:00,56.0,46.0,30.18,South,181,8.0,12.0,66,-99.99,,,-99.99,,2013-03-05 14:22:00,
2013-03-05 09:32:00,56.0,46.0,30.18,South,181,8.0,12.0,66,-99.99,,,-99.99,,2013-03-05 14:32:00,
2013-03-05 09:42:00,58.0,46.0,30.19,South,179,10.0,50.0,62,-99.99,,,-99.99,,2013-03-05 14:42:00,
2013-03-05 09:52:00,58.0,46.0,30.19,South,179,10.0,50.0,62,-99.99,,,-99.99,,2013-03-05 14:52:00,
2013-03-05 10:02:00,60.0,45.0,30.18,South,185,11.0,15.0,55,-99.99,,,-99.99,,2013-03-05 15:02:00,
2013-03-05 10:11:00,60.0,45.0,30.18,South,185,11.0,15.0,55,-99.99,,,-99.99,,2013-03-05 15:11:00,
2013-03-05 10:22:00,63.0,42.0,30.18,SSW,202,8.0,12.0,46,-99.99,,,-99.99,,2013-03-05 15:22:00,
2013-03-05 10:32:00,63.0,42.0,30.18,SSW,202,8.0,12.0,46,-99.99,,,-99.99,,2013-03-05 15:32:00,
2013-03-05 10:42:00,64.0,40.0,30.17,SSW,202,10.0,14.0,41,-99.99,,,-99.99,,2013-03-05 15:42:00,
2013-03-05 10:52:00,64.0,40.0,30.17,SSW,202,10.0,14.0,41,-99.99,,,-99.99,,2013-03-05 15:52:00,
2013-03-05 11:02:00,65.0,41.0,30.17,SSW,204,8.0,15.0,40,-99.99,,,-99.99,,2013-03-05 16:02:00,
2013-03-05 11:11:00,65.0,41.0,30.17,SSW,204,8.0,15.0,40,-99.99,,,-99.99,,2013-03-05 16:11:00,
2013-03-05 11:22:00,67.0,42.0,30.16,SW,219,9.0,20.0,41,-99.99,,,-99.99,,2013-03-05 16:22:00,
2013-03-05 11:32:00,67.0,42.0,30.16,SW,219,9.0,20.0,41,-99.99,,,-99.99,,2013-03-05 16:32:00,
2013-03-05 11:42:00,67.0,44.0,30.16,SW,216,10.0,16.0,42,-99.99,,,-99.99,,2013-03-05 16:42:00,
2013-03-05 11:52:00,67.0,44.0,30.16,SW,216,10.0,16.0,42,-99.99,,,-99.99,,2013-03-05 16:52:00,
2013-03-05 12:01:00,69.0,46.0,30.15,SSW,192,10.0,19.0,44,-99.99,,,-99.99,,2013-03-05 17:01:00,
2013-03-05 12:11:00,69.0,46.0,30.15,SSW,192,10.0,19.0,44,-99.99,,,-99.99,,2013-03-05 17:11:00,
2013-03-05 12:22:00,70.0,47.0,30.14,SSW,194,10.0,19.0,43,-99.99,,,-99.99,,2013-03-05 17:22:00,
2013-03-05 12:32:00,70.0,47.0,30.14,SSW,194,10.0,19.0,43,-99.99,,,-99.99,,2013-03-05 17:32:00,
2013-03-05 12:42:00,71.0,47.0,30.13,SSW,195,12.0,21.0,42,-99.99,,,-99.99,,2013-03-05 17:42:00,
2013-03-05 12:53:00,71.0,47.0,30.13,SSW,195,12.0,21.0,42,-99.99,,,-99.99,,2013-03-05 17:53:00,
2013-03-05 13:02:00,72.0,46.0,30.13,SW,221,10.0,19.0,40,-99.99,,,-99.99,,2013-03-05 18:02:00,
2013-03-05 13:11:00,72.0,46.0,30.13,SW,221,10.0,19.0,40,-99.99,,,-99.99,,2013-03-05 18:11:00,
2013-03-05 13:22:00,72.0,46.0,30.12,WSW,242,10.0,16.0,39,-99.99,,,-99.99,,2013-03-05 18:22:00,
2013-03-05 13:32:00,72.0,46.0,30.12,WSW,242,10.0,16.0,39,-99.99,,,-99.99,,2013-03-05 18:32:00,
2013-03-05 13:42:00,72.0,45.0,30.11,SW,225,11.0,20.0,37,-99.99,,,-99.99,,2013-03-05 18:42:00,
2013-03-05 13:53:00,72.0,45.0,30.11,SW,225,11.0,20.0,37,-99.99,,,-99.99,,2013-03-05 18:53:00,
2013-03-05 14:01:00,73.0,44.0,30.09,SW,217,10.0,17.0,36,-99.99,,,-99.99,,2013-03-05 19:01:00,
2013-03-05 14:11:00,73.0,44.0,30.09,SW,217,10.0,17.0,36,-99.99,,,-99.99,,2013-03-05 19:11:00,
2013-03-05 14:22:00,74.0,45.0,30.09,SW,226,8.0,14.0,35,-99.99,,,-99.99,,2013-03-05 19:22:00,
2013-03-05 14:32:00,74.0,46.0,30.08,West,260,7.0,12.0,36,-99.99,,,-99.99,,2013-03-05 19:32:00,
2013-03-05 14:42:00,74.0,46.0,30.08,West,260,7.0,12.0,36,-99.99,,,-99.99,,2013-03-05 19:42:00,
2013-03-05 14:52:00,74.0,45.0,30.07,West,268,9.0,19.0,36,-99.99,,,-99.99,,2013-03-05 19:52:00,
2013-03-05 15:01:00,74.0,45.0,30.06,West,264,9.0,16.0,36,-99.99,,,-99.99,,2013-03-05 20:01:00,
2013-03-05 15:11:00,74.0,45.0,30.06,West,264,9.0,16.0,36,-99.99,,,-99.99,,2013-03-05 20:11:00,
2013-03-05 15:22:00,73.0,47.0,30.06,WNW,287,9.0,17.0,39,-99.99,,,-99.99,,2013-03-05 20:22:00,
2013-03-05 15:32:00,73.0,47.0,30.06,WNW,287,9.0,17.0,39,-99.99,,,-99.99,,2013-03-05 20:32:00,
2013-03-05 15:42:00,74.0,46.0,30.05,West,271,8.0,14.0,37,-99.99,,,-99.99,,2013-03-05 20:42:00,
2013-03-05 15:52:00,74.0,46.0,30.05,West,271,8.0,14.0,37,-99.99,,,-99.99,,2013-03-05 20:52:00,
2013-03-05 16:02:00,75.0,43.0,30.04,WSW,239,10.0,17.0,32,-99.99,,,-99.99,,2013-03-05 21:02:00,
2013-03-05 16:11:00,75.0,43.0,30.04,WSW,239,10.0,17.0,32,-99.99,,,-99.99,,2013-03-05 21:11:00,
2013-03-05 16:22:00,75.0,43.0,30.04,WSW,248,11.0,19.0,32,-99.99,,,-99.99,,2013-03-05 21:22:00,
2013-03-05 16:32:00,75.0,44.0,30.05,West,262,11.0,18.0,32,-99.99,,,-99.99,,2013-03-05 21:32:00,
2013-03-05 16:42:00,75.0,44.0,30.05,West,262,11.0,18.0,32,-99.99,,,-99.99,,2013-03-05 21:42:00,
2013-03-05 16:52:00,75.0,44.0,30.05,WSW,253,10.0,16.0,33,-99.99,,,-99.99,,2013-03-05 21:52:00,
2013-03-05 17:01:00,75.0,44.0,30.05,WSW,253,10.0,16.0,33,-99.99,,,-99.99,,2013-03-05 22:01:00,
2013-03-05 17:12:00,75.0,46.0,30.05,West,268,10.0,17.0,35,-99.99,,,-99.99,,2013-03-05 22:12:00,
2013-03-05 17:22:00,75.0,46.0,30.05,West,268,10.0,17.0,35,-99.99,,,-99.99,,2013-03-05 22:22:00,
2013-03-05 17:32:00,75.0,47.0,30.05,West,265,11.0,18.0,37,-99.99,,,-99.99,,2013-03-05 22:32:00,
2013-03-05 17:42:00,75.0,47.0,30.05,West,265,11.0,18.0,37,-99.99,,,-99.99,,2013-03-05 22:42:00,
2013-03-05 17:52:00,73.0,49.0,30.05,West,266,8.0,15.0,42,-99.99,,,-99.99,,2013-03-05 22:52:00,
2013-03-05 18:01:00,73.0,49.0,30.05,West,266,8.0,15.0,42,-99.99,,,-99.99,,2013-03-05 23:01:00,
2013-03-05 18:11:00,73.0,49.0,30.06,West,275,9.0,15.0,43,-99.99,,,-99.99,,2013-03-05 23:11:00,
2013-03-05 18:22:00,73.0,49.0,30.06,West,275,9.0,15.0,43,-99.99,,,-99.99,,2013-03-05 23:22:00,
2013-03-05 18:32:00,73.0,49.0,30.06,West,275,9.0,15.0,43,-99.99,,,-99.99,,2013-03-05 23:32:00,
2013-03-05 18:42:00,72.0,48.0,30.05,West,274,8.0,15.0,43,-99.99,,,-99.99,,2013-03-05 23:42:00,
2013-03-05 18:53:00,71.0,48.0,30.05,West,263,6.0,11.0,44,-99.99,,,-99.99,,2013-03-05 23:53:00,
2013-03-05 19:02:00,69.0,47.0,30.05,WSW,258,6.0,10.0,45,-99.99,,,-99.99,,2013-03-06 00:02:00,
2013-03-05 19:11:00,69.0,47.0,30.05,WSW,258,6.0,10.0,45,-99.99,,,-99.99,,2013-03-06 00:11:00,
2013-03-05 19:22:00,67.0,46.0,30.05,West,260,6.0,8.0,47,-99.99,,,-99.99,,2013-03-06 00:22:00,
2013-03-05 19:32:00,67.0,46.0,30.05,West,260,6.0,8.0,47,-99.99,,,-99.99,,2013-03-06 00:32:00,
2013-03-05 19:42:00,66.0,46.0,30.05,WSW,255,6.0,8.0,48,-99.99,,,-99.99,,2013-03-06 00:42:00,
2013-03-05 19:52:00,66.0,46.0,30.05,WSW,255,6.0,8.0,48,-99.99,,,-99.99,,2013-03-06 00:52:00,
2013-03-05 20:02:00,65.0,46.0,30.05,WSW,250,6.0,8.0,50,-99.99,,,-99.99,,2013-03-06 01:02:00,
2013-03-05 20:11:00,65.0,46.0,30.05,WSW,250,6.0,8.0,50,-99.99,,,-99.99,,2013-03-06 01:11:00,
2013-03-05 20:22:00,64.0,48.0,30.06,WSW,253,7.0,10.0,56,-99.99,,,-99.99,,2013-03-06 01:22:00,
2013-03-05 20:32:00,64.0,48.0,30.06,WSW,253,7.0,10.0,56,-99.99,,,-99.99,,2013-03-06 01:32:00,
2013-03-05 20:42:00,63.0,48.0,30.06,WSW,252,6.0,9.0,58,-99.99,,,-99.99,,2013-03-06 01:42:00,
2013-03-05 20:52:00,63.0,48.0,30.06,WSW,252,6.0,9.0,58,-99.99,,,-99.99,,2013-03-06 01:52:00,
2013-03-05 21:01:00,62.0,49.0,30.06,WSW,250,7.0,10.0,60,-99.99,,,-99.99,,2013-03-06 02:01:00,
2013-03-05 21:11:00,62.0,49.0,30.06,WSW,250,7.0,10.0,60,-99.99,,,-99.99,,2013-03-06 02:11:00,
2013-03-05 21:22:00,61.0,49.0,30.05,SW,220,6.0,9.0,65,-99.99,,,-99.99,,2013-03-06 02:22:00,
2013-03-05 21:32:00,61.0,49.0,30.05,SW,220,6.0,9.0,65,-99.99,,,-99.99,,2013-03-06 02:32:00,
2013-03-05 21:42:00,59.0,49.0,30.05,SSW,201,7.0,10.0,69,-99.99,,,-99.99,,2013-03-06 02:42:00,
2013-03-05 21:52:00,59.0,49.0,30.05,SSW,201,7.0,10.0,69,-99.99,,,-99.99,,2013-03-06 02:52:00,
2013-03-05 22:02:00,59.0,51.0,30.05,SSW,205,8.0,11.0,72,-99.99,,,-99.99,,2013-03-06 03:02:00,
2013-03-05 22:11:00,59.0,51.0,30.05,SSW,205,8.0,11.0,72,-99.99,,,-99.99,,2013-03-06 03:11:00,
2013-03-05 22:22:00,59.0,51.0,30.05,SW,214,7.0,10.0,74,-99.99,,,-99.99,,2013-03-06 03:22:00,
2013-03-05 22:32:00,59.0,51.0,30.05,SW,214,7.0,10.0,74,-99.99,,,-99.99,,2013-03-06 03:32:00,
2013-03-05 22:42:00,58.0,51.0,30.05,SSW,211,7.0,11.0,76,-99.99,,,-99.99,,2013-03-06 03:42:00,
2013-03-05 22:53:00,58.0,51.0,30.05,SSW,211,7.0,11.0,76,-99.99,,,-99.99,,2013-03-06 03:53:00,
2013-03-05 23:02:00,58.0,52.0,30.04,SSW,204,8.0,11.0,78,-99.99,,,-99.99,,2013-03-06 04:02:00,
2013-03-05 23:11:00,58.0,52.0,30.04,SSW,204,8.0,11.0,78,-99.99,,,-99.99,,2013-03-06 04:11:00,
2013-03-05 23:22:00,58.0,52.0,30.04,SSW,197,9.0,13.0,80,-99.99,,,-99.99,,2013-03-06 04:22:00,
2013-03-05 23:32:00,58.0,52.0,30.04,SSW,197,9.0,13.0,80,-99.99,,,-99.99,,2013-03-06 04:32:00,
2013-03-05 23:42:00,59.0,53.0,30.04,SW,218,8.0,14.0,82,-99.99,,,-99.99,,2013-03-06 04:42:00,
2013-03-05 23:52:00,59.0,53.0,30.04,SW,218,8.0,14.0,82,-99.99,,,-99.99,,2013-03-06 04:52:00,